Zurück zum Katalog

LES 2 AKM

AktivHEO
NORAD 2529·ROCKET BODY·🇺🇸 United States

Gestartet May 6, 1965 von Cape Canaveral Space Force Station

Loading…

Nächste Überflüge (nächste 24 Stunden)

TLE

AktuellSource: Space-Track

Epoche: Sep 11, 2026, 11:28 UTC

1 02529U 65034D   26254.47793271 -.00000052  00000-0  00000-0 0  9993
2 02529  32.1993 333.7947 3965851 126.8938 276.4061  4.64839200 24511

Verfolge LES 2 AKM in Echtzeit mit AllMySat

Download on the App Store